| time (UTC) | temp C | wind direction | speed KPH | gust KPH | rain 1hr cm | rain 24hr cm | rain mn cm | humidity % | barometer mb |
| 20260506004830 | 21 | 317 | 3.2 | 8.0 | 0.00 | 0.71 | 0.00 | 37 | 1012.6 |
| 20260506004317 | 20 | 317 | 1.6 | 8.0 | 0.00 | 0.71 | 0.00 | 39 | 1012.7 |
| 20260506003831 | 20 | 317 | 3.2 | 6.4 | 0.00 | 0.71 | 0.00 | 40 | 1012.6 |
| 20260506003320 | 20 | 317 | 4.8 | 9.7 | 0.00 | 0.71 | 0.00 | 38 | 1012.6 |
| 20260506002850 | 20 | 318 | 4.8 | 9.7 | 0.00 | 0.71 | 0.00 | 39 | 1012.7 |
| 20260506002318 | 20 | 317 | 3.2 | 8.0 | 0.00 | 0.71 | 0.00 | 41 | 1012.7 |
| 20260506001828 | 20 | 318 | 4.8 | 8.0 | 0.00 | 0.71 | 0.00 | 40 | 1012.6 |
| 20260506001320 | 21 | 318 | 3.2 | 9.7 | 0.00 | 0.71 | 0.00 | 38 | 1012.6 |
| 20260506000831 | 20 | 318 | 3.2 | 12.9 | 0.00 | 0.71 | 0.00 | 39 | 1012.7 |
| 20260506000323 | 20 | 320 | 4.8 | 14.5 | 0.00 | 0.71 | 0.00 | 40 | 1012.6 |
| 20260505235835 | 21 | 321 | 9.7 | 14.5 | 0.00 | 0.71 | 0.00 | 39 | 1012.7 |
| 20260505235345 | 20 | 321 | 4.8 | 9.7 | 0.00 | 0.71 | 0.00 | 41 | 1012.6 |
| 20260505234814 | 20 | 321 | 3.2 | 14.5 | 0.00 | 0.71 | 0.00 | 39 | 1012.6 |
| 20260505234329 | 20 | 321 | 4.8 | 14.5 | 0.00 | 0.71 | 0.00 | 39 | 1012.7 |
| 20260505233821 | 20 | 318 | 4.8 | 9.7 | 0.00 | 0.71 | 0.00 | 43 | 1012.7 |
| 20260505233355 | 20 | 318 | 3.2 | 9.7 | 0.00 | 0.71 | 0.00 | 41 | 1012.7 |
| 20260505232824 | 20 | 319 | 4.8 | 9.7 | 0.00 | 0.71 | 0.00 | 41 | 1012.7 |
| 20260505232331 | 20 | 319 | 4.8 | 9.7 | 0.00 | 0.71 | 0.00 | 39 | 1012.8 |
| 20260505231821 | 20 | 319 | 4.8 | 9.7 | 0.00 | 0.71 | 0.00 | 42 | 1012.8 |
| 20260505231331 | 20 | 319 | 3.2 | 12.9 | 0.00 | 0.74 | 0.00 | 41 | 1012.8 |
| 20260505230841 | 20 | 319 | 4.8 | 12.9 | 0.00 | 0.74 | 0.00 | 42 | 1012.9 |
| 20260505230330 | 20 | 331 | 4.8 | 17.7 | 0.00 | 0.74 | 0.00 | 44 | 1012.8 |
| 20260505225820 | 20 | 322 | 6.4 | 9.7 | 0.00 | 0.74 | 0.00 | 44 | 1012.9 |
| 20260505225330 | 20 | 325 | 1.6 | 12.9 | 0.00 | 0.74 | 0.00 | 45 | 1012.8 |
| 20260505224819 | 19 | 325 | 6.4 | 12.9 | 0.00 | 0.74 | 0.00 | 43 | 1013.0 |
| 20260505224331 | 19 | 321 | 4.8 | 12.9 | 0.00 | 0.74 | 0.00 | 45 | 1013.0 |
| 20260505223841 | 19 | 326 | 4.8 | 14.5 | 0.00 | 0.74 | 0.00 | 46 | 1012.9 |
| 20260505223334 | 19 | 335 | 6.4 | 14.5 | 0.00 | 0.74 | 0.00 | 43 | 1013.1 |
| 20260505222843 | 19 | 325 | 1.6 | 16.1 | 0.00 | 0.74 | 0.00 | 42 | 1013.1 |
| 20260505222332 | 19 | 325 | 8.0 | 16.1 | 0.00 | 0.74 | 0.00 | 42 | 1013.2 |
| 20260505221823 | 19 | 315 | 3.2 | 14.5 | 0.00 | 0.74 | 0.00 | 45 | 1013.2 |
| 20260505221329 | 19 | 315 | 3.2 | 14.5 | 0.00 | 0.74 | 0.00 | 44 | 1013.3 |
| 20260505220820 | 19 | 315 | 4.8 | 14.5 | 0.00 | 0.74 | 0.00 | 43 | 1013.4 |
| 20260505220331 | 18 | 310 | 3.2 | 8.0 | 0.00 | 0.74 | 0.00 | 44 | 1013.4 |
| 20260505215822 | 18 | 310 | 1.6 | 14.5 | 0.00 | 0.74 | 0.00 | 44 | 1013.4 |
| 20260505215332 | 18 | 310 | 6.4 | 14.5 | 0.00 | 0.74 | 0.00 | 50 | 1013.5 |
| 20260505214820 | 18 | 309 | 4.8 | 14.5 | 0.00 | 0.74 | 0.00 | 47 | 1013.5 |
| 20260505214331 | 18 | 309 | 6.4 | 14.5 | 0.00 | 0.74 | 0.00 | 47 | 1013.6 |
| 20260505213820 | 18 | 306 | 4.8 | 9.7 | 0.00 | 0.74 | 0.00 | 49 | 1013.7 |
| 20260505213324 | 17 | 306 | 1.6 | 17.7 | 0.00 | 0.74 | 0.00 | 52 | 1013.7 |
| 20260505212836 | 17 | 304 | 8.0 | 17.7 | 0.00 | 0.74 | 0.00 | 53 | 1013.8 |
| 20260505212323 | 17 | 263 | 4.8 | 12.9 | 0.00 | 0.74 | 0.00 | 51 | 1013.8 |
| 20260505211835 | 17 | 263 | 4.8 | 17.7 | 0.00 | 0.74 | 0.00 | 52 | 1013.8 |
| 20260505211325 | 17 | 263 | 11.3 | 17.7 | 0.00 | 0.86 | 0.00 | 55 | 1013.7 |
| 20260505210815 | 17 | 307 | 3.2 | 8.0 | 0.00 | 0.86 | 0.00 | 55 | 1013.9 |
| 20260505210330 | 17 | 307 | 4.8 | 8.0 | 0.00 | 0.86 | 0.00 | 58 | 1013.9 |
| 20260505205842 | 16 | 307 | 0.0 | 6.4 | 0.00 | 0.86 | 0.00 | 56 | 1013.9 |
| 20260505205328 | 16 | 307 | 3.2 | 6.4 | 0.00 | 0.86 | 0.00 | 56 | 1014.0 |
| 20260505204840 | 16 | 307 | 3.2 | 6.4 | 0.00 | 0.86 | 0.00 | 55 | 1014.0 |
| 20260505204324 | 16 | 307 | 0.0 | 6.4 | 0.00 | 0.86 | 0.00 | 58 | 1014.0 |
| 20260505203833 | 16 | 307 | 1.6 | 8.0 | 0.00 | 0.86 | 0.00 | 57 | 1014.1 |
| 20260505203323 | 16 | 307 | 4.8 | 8.0 | 0.00 | 0.86 | 0.00 | 55 | 1014.1 |
| 20260505202832 | 17 | 307 | 3.2 | 9.7 | 0.00 | 0.86 | 0.00 | 56 | 1014.1 |
| 20260505202340 | 16 | 307 | 4.8 | 9.7 | 0.00 | 0.86 | 0.00 | 58 | 1014.0 |
| 20260505201824 | 16 | 307 | 4.8 | 14.5 | 0.00 | 0.86 | 0.00 | 59 | 1014.1 |
| 20260505201313 | 16 | 307 | 4.8 | 14.5 | 0.00 | 0.99 | 0.00 | 59 | 1014.1 |
| 20260505200852 | 16 | 304 | 4.8 | 14.5 | 0.00 | 0.99 | 0.00 | 56 | 1014.1 |
| 20260505200343 | 16 | 302 | 6.4 | 9.7 | 0.00 | 0.99 | 0.00 | 59 | 1014.1 |
| 20260505195831 | 16 | 301 | 4.8 | 9.7 | 0.00 | 0.99 | 0.00 | 59 | 1014.1 |
| 20260505195323 | 16 | 301 | 3.2 | 12.9 | 0.00 | 0.99 | 0.00 | 58 | 1014.2 |
| 20260505194832 | 16 | 300 | 3.2 | 12.9 | 0.00 | 0.99 | 0.00 | 60 | 1014.3 |
| 20260505194321 | 15 | 294 | 1.6 | 8.0 | 0.00 | 0.99 | 0.00 | 64 | 1014.3 |
| 20260505193832 | 15 | 294 | 0.0 | 14.5 | 0.00 | 0.99 | 0.00 | 65 | 1014.4 |
| 20260505193320 | 14 | 294 | 8.0 | 14.5 | 0.00 | 0.99 | 0.00 | 66 | 1014.4 |
| 20260505192829 | 13 | 292 | 3.2 | 6.4 | 0.00 | 0.99 | 0.00 | 65 | 1014.3 |
| 20260505192319 | 13 | 292 | 3.2 | 6.4 | 0.00 | 0.99 | 0.00 | 66 | 1014.4 |
| 20260505191824 | 13 | 292 | 1.6 | 8.0 | 0.00 | 0.99 | 0.00 | 67 | 1014.3 |
| 20260505191316 | 13 | 292 | 4.8 | 8.0 | 0.00 | 0.99 | 0.00 | 66 | 1014.3 |
| 20260505190826 | 13 | 292 | 3.2 | 6.4 | 0.00 | 0.99 | 0.00 | 68 | 1014.3 |
| 20260505190316 | 13 | 292 | 4.8 | 8.0 | 0.00 | 0.99 | 0.00 | 68 | 1014.4 |
| 20260505185822 | 13 | 292 | 4.8 | 11.3 | 0.00 | 0.99 | 0.00 | 67 | 1014.3 |
| 20260505185332 | 13 | 292 | 4.8 | 11.3 | 0.00 | 0.99 | 0.00 | 71 | 1014.4 |
| 20260505184821 | 13 | 292 | 3.2 | 6.4 | 0.00 | 0.99 | 0.00 | 70 | 1014.4 |
| 20260505184347 | 12 | 292 | 1.6 | 6.4 | 0.00 | 0.99 | 0.00 | 69 | 1014.3 |
| 20260505183818 | 12 | 292 | 3.2 | 8.0 | 0.00 | 0.99 | 0.00 | 70 | 1014.3 |
| 20260505183331 | 12 | 292 | 4.8 | 8.0 | 0.00 | 0.99 | 0.00 | 70 | 1014.3 |
| 20260505182821 | 12 | 292 | 1.6 | 6.4 | 0.00 | 0.99 | 0.00 | 70 | 1014.5 |
| 20260505182332 | 12 | 292 | 1.6 | 6.4 | 0.00 | 0.99 | 0.00 | 71 | 1014.3 |
| 20260505181842 | 12 | 292 | 1.6 | 4.8 | 0.00 | 0.99 | 0.00 | 73 | 1014.3 |
| 20260505181331 | 12 | 292 | 1.6 | 4.8 | 0.00 | 0.99 | 0.00 | 73 | 1014.4 |
| 20260505180842 | 12 | 292 | 3.2 | 6.4 | 0.00 | 0.99 | 0.00 | 73 | 1014.3 |
| 20260505180350 | 11 | 292 | 3.2 | 8.0 | 0.00 | 0.99 | 0.00 | 72 | 1014.3 |
| 20260505175836 | 12 | 292 | 4.8 | 8.0 | 0.00 | 0.99 | 0.00 | 72 | 1014.3 |
| 20260505175323 | 12 | 292 | 3.2 | 8.0 | 0.00 | 0.99 | 0.00 | 74 | 1014.2 |
| 20260505174813 | 12 | 292 | 4.8 | 11.3 | 0.00 | 0.99 | 0.00 | 72 | 1014.3 |
| 20260505174324 | 12 | 292 | 3.2 | 11.3 | 0.00 | 0.99 | 0.00 | 72 | 1014.1 |
| 20260505173815 | 12 | 292 | 4.8 | 6.4 | 0.00 | 0.99 | 0.00 | 73 | 1014.1 |
| 20260505173324 | 12 | 292 | 3.2 | 11.3 | 0.00 | 0.99 | 0.00 | 74 | 1014.0 |
| 20260505172833 | 11 | 292 | 3.2 | 11.3 | 0.00 | 0.99 | 0.00 | 75 | 1013.8 |
| 20260505172340 | 11 | 292 | 1.6 | 11.3 | 0.00 | 0.99 | 0.00 | 75 | 1013.9 |
| 20260505171828 | 11 | 292 | 4.8 | 12.9 | 0.00 | 0.99 | 0.00 | 75 | 1013.9 |
| 20260505171319 | 11 | 292 | 8.0 | 12.9 | 0.00 | 0.99 | 0.00 | 77 | 1013.8 |
| 20260505170830 | 11 | 290 | 3.2 | 12.9 | 0.00 | 0.99 | 0.00 | 77 | 1013.9 |
| 20260505170321 | 10 | 291 | 4.8 | 11.3 | 0.00 | 0.99 | 0.00 | 78 | 1013.8 |
| 20260505165832 | 10 | 291 | 4.8 | 14.5 | 0.00 | 0.99 | 0.00 | 78 | 1013.8 |
| 20260505165323 | 10 | 290 | 6.4 | 14.5 | 0.00 | 0.99 | 0.00 | 79 | 1013.9 |
| 20260505164812 | 10 | 290 | 6.4 | 11.3 | 0.00 | 0.99 | 0.00 | 79 | 1013.8 |
| 20260505164327 | 10 | 290 | 4.8 | 12.9 | 0.00 | 0.99 | 0.00 | 80 | 1013.8 |
| 20260505163832 | 10 | 290 | 3.2 | 11.3 | 0.00 | 0.99 | 0.00 | 81 | 1013.7 |
| 20260505163322 | 10 | 290 | 4.8 | 8.0 | 0.00 | 0.99 | 0.00 | 80 | 1013.7 |
| 20260505162814 | 10 | 290 | 3.2 | 6.4 | 0.00 | 0.99 | 0.00 | 81 | 1013.8 |
| 20260505162343 | 10 | 290 | 4.8 | 6.4 | 0.00 | 0.99 | 0.00 | 81 | 1013.6 |
| 20260505161853 | 9 | 290 | 3.2 | 6.4 | 0.00 | 0.99 | 0.00 | 82 | 1013.6 |
| 20260505161320 | 9 | 290 | 1.6 | 4.8 | 0.00 | 0.99 | 0.00 | 82 | 1013.7 |
| 20260505160826 | 9 | 290 | 3.2 | 8.0 | 0.00 | 0.99 | 0.00 | 83 | 1013.6 |
| 20260505160336 | 8 | 290 | 1.6 | 11.3 | 0.00 | 0.99 | 0.00 | 84 | 1013.6 |
| 20260505153323 | 8 | 290 | 6.4 | 12.9 | 0.00 | 0.99 | 0.00 | 85 | 1013.2 |
| 20260505152832 | 8 | 290 | 4.8 | 11.3 | 0.00 | 0.99 | 0.00 | 86 | 1013.1 |
| 20260505152337 | 8 | 290 | 3.2 | 11.3 | 0.00 | 0.99 | 0.00 | 87 | 1013.1 |
| 20260505151827 | 7 | 289 | 6.4 | 12.9 | 0.00 | 0.99 | 0.00 | 86 | 1013.1 |
| 20260505151317 | 7 | 289 | 6.4 | 11.3 | 0.00 | 0.99 | 0.00 | 86 | 1013.0 |
| 20260505150843 | 7 | 290 | 6.4 | 11.3 | 0.00 | 0.99 | 0.00 | 87 | 1013.1 |
| 20260505150332 | 7 | 290 | 4.8 | 11.3 | 0.00 | 0.99 | 0.00 | 87 | 1013.0 |
| 20260505140356 | 7 | 290 | 4.8 | 8.0 | 0.00 | 0.99 | 0.00 | 88 | 1012.4 |
| 20260505124823 | 6 | 290 | 3.2 | 11.3 | 0.00 | 0.99 | 0.00 | 88 | 1011.7 |
| 20260505124333 | 6 | 290 | 3.2 | 11.3 | 0.00 | 0.99 | 0.00 | 88 | 1011.7 |
| 20260505123825 | 6 | 290 | 4.8 | 11.3 | 0.00 | 0.99 | 0.00 | 88 | 1011.7 |
| 20260505123334 | 6 | 290 | 4.8 | 11.3 | 0.00 | 0.99 | 0.00 | 88 | 1011.6 |
| 20260505122821 | 6 | 290 | 3.2 | 14.5 | 0.00 | 0.99 | 0.00 | 88 | 1011.6 |
| 20260505122330 | 6 | 290 | 3.2 | 14.5 | 0.00 | 0.99 | 0.00 | 88 | 1011.6 |
| 20260505121839 | 6 | 290 | 4.8 | 14.5 | 0.00 | 0.99 | 0.00 | 88 | 1011.6 |
| 20260505121329 | 6 | 290 | 4.8 | 14.5 | 0.00 | 0.99 | 0.00 | 88 | 1011.7 |
| 20260505120819 | 6 | 290 | 3.2 | 8.0 | 0.00 | 0.99 | 0.00 | 89 | 1011.7 |
| 20260505120348 | 6 | 290 | 3.2 | 11.3 | 0.00 | 0.99 | 0.00 | 88 | 1011.6 |
| 20260505115839 | 6 | 290 | 4.8 | 11.3 | 0.00 | 0.99 | 0.00 | 88 | 1011.6 |
| 20260505115330 | 6 | 290 | 4.8 | 11.3 | 0.00 | 0.99 | 0.00 | 88 | 1011.5 |
| 20260505114820 | 6 | 290 | 3.2 | 8.0 | 0.00 | 0.99 | 0.00 | 88 | 1011.4 |
| 20260505114334 | 6 | 290 | 3.2 | 8.0 | 0.00 | 0.99 | 0.00 | 88 | 1011.6 |
| 20260505113844 | 6 | 290 | 3.2 | 8.0 | 0.00 | 0.99 | 0.00 | 88 | 1011.5 |
| 20260505113330 | 6 | 290 | 4.8 | 8.0 | 0.00 | 0.99 | 0.00 | 88 | 1011.7 |
| 20260505112820 | 6 | 290 | 3.2 | 12.9 | 0.00 | 0.99 | 0.00 | 88 | 1011.6 |
| 20260505112329 | 6 | 290 | 4.8 | 12.9 | 0.00 | 0.99 | 0.00 | 88 | 1011.4 |
| 20260505111820 | 6 | 290 | 4.8 | 14.5 | 0.00 | 0.99 | 0.00 | 88 | 1011.5 |
| 20260505111329 | 6 | 290 | 4.8 | 14.5 | 0.00 | 0.99 | 0.00 | 88 | 1011.4 |
| 20260505110837 | 6 | 290 | 4.8 | 14.5 | 0.00 | 0.99 | 0.00 | 87 | 1011.5 |
| 20260505110323 | 6 | 290 | 4.8 | 12.9 | 0.00 | 0.99 | 0.00 | 87 | 1011.5 |
| 20260505101836 | 6 | 290 | 4.8 | 12.9 | 0.00 | 0.99 | 0.00 | 88 | 1011.8 |
| 20260505101325 | 6 | 290 | 4.8 | 11.3 | 0.00 | 0.99 | 0.00 | 88 | 1011.8 |
| 20260505100854 | 6 | 290 | 1.6 | 8.0 | 0.00 | 0.99 | 0.00 | 88 | 1011.8 |
| 20260505100324 | 6 | 290 | 1.6 | 6.4 | 0.00 | 0.99 | 0.00 | 89 | 1011.8 |
| 20260505095835 | 6 | 290 | 0.0 | 4.8 | 0.00 | 0.99 | 0.00 | 88 | 1011.7 |
| 20260505095325 | 6 | 290 | 1.6 | 4.8 | 0.00 | 0.99 | 0.00 | 88 | 1011.8 |
| 20260505094830 | 6 | 290 | 1.6 | 4.8 | 0.00 | 0.99 | 0.00 | 88 | 1011.9 |
| 20260505094342 | 6 | 290 | 1.6 | 6.4 | 0.00 | 0.99 | 0.00 | 88 | 1011.9 |
| 20260505093830 | 6 | 290 | 3.2 | 8.0 | 0.00 | 0.99 | 0.00 | 89 | 1011.9 |
| 20260505093320 | 6 | 290 | 4.8 | 8.0 | 0.00 | 0.99 | 0.00 | 89 | 1011.8 |
| 20260505092831 | 6 | 290 | 1.6 | 4.8 | 0.00 | 0.99 | 0.00 | 88 | 1011.9 |
| 20260505092319 | 6 | 290 | 1.6 | 6.4 | 0.00 | 0.99 | 0.00 | 88 | 1011.9 |
| 20260505091828 | 6 | 290 | 3.2 | 6.4 | 0.00 | 0.99 | 0.00 | 88 | 1011.9 |
| 20260505091340 | 6 | 290 | 1.6 | 8.0 | 0.00 | 0.99 | 0.00 | 88 | 1012.0 |
| 20260505090828 | 6 | 290 | 3.2 | 11.3 | 0.00 | 0.99 | 0.00 | 88 | 1012.0 |
| 20260505090318 | 6 | 290 | 6.4 | 11.3 | 0.00 | 0.99 | 0.00 | 88 | 1011.9 |
| 20260505085829 | 6 | 290 | 4.8 | 12.9 | 0.00 | 0.99 | 0.00 | 88 | 1012.1 |
| 20260505085319 | 6 | 290 | 4.8 | 12.9 | 0.00 | 0.99 | 0.00 | 88 | 1012.0 |
| 20260505084856 | 6 | 290 | 4.8 | 12.9 | 0.00 | 0.99 | 0.00 | 88 | 1012.1 |
| 20260505084325 | 6 | 290 | 4.8 | 12.9 | 0.00 | 0.99 | 0.00 | 88 | 1012.1 |
| 20260505083812 | 6 | 289 | 4.8 | 14.5 | 0.00 | 0.99 | 0.00 | 88 | 1012.0 |
| 20260505083329 | 6 | 289 | 6.4 | 12.9 | 0.00 | 0.99 | 0.00 | 88 | 1012.2 |
| 20260505082819 | 6 | 289 | 4.8 | 11.3 | 0.00 | 0.99 | 0.00 | 88 | 1012.3 |
| 20260505082326 | 6 | 289 | 4.8 | 8.0 | 0.00 | 0.99 | 0.00 | 88 | 1012.4 |
| 20260505081838 | 6 | 288 | 3.2 | 6.4 | 0.00 | 0.99 | 0.00 | 88 | 1012.5 |
| 20260505081328 | 6 | 288 | 3.2 | 8.0 | 0.00 | 0.99 | 0.00 | 88 | 1012.5 |
| 20260505080840 | 6 | 288 | 1.6 | 8.0 | 0.00 | 0.99 | 0.00 | 88 | 1012.6 |
| 20260505080325 | 6 | 288 | 3.2 | 6.4 | 0.00 | 0.99 | 0.00 | 88 | 1012.6 |
| 20260505075816 | 6 | 288 | 0.0 | 4.8 | 0.00 | 0.99 | 0.00 | 89 | 1012.5 |
| 20260505075324 | 6 | 288 | 1.6 | 6.4 | 0.00 | 0.99 | 0.00 | 88 | 1012.6 |
| 20260505074834 | 6 | 288 | 1.6 | 6.4 | 0.00 | 0.99 | 0.00 | 88 | 1012.7 |
| 20260505074323 | 6 | 288 | 3.2 | 6.4 | 0.00 | 0.99 | 0.00 | 88 | 1012.7 |
| 20260505073834 | 6 | 288 | 1.6 | 6.4 | 0.00 | 0.99 | 0.00 | 88 | 1012.6 |
| 20260505073323 | 6 | 288 | 3.2 | 6.4 | 0.00 | 0.99 | 0.00 | 88 | 1012.3 |
| 20260505072833 | 6 | 288 | 3.2 | 6.4 | 0.00 | 0.99 | 0.00 | 88 | 1012.6 |
| 20260505072321 | 6 | 288 | 1.6 | 4.8 | 0.00 | 0.99 | 0.00 | 88 | 1012.8 |
| 20260505071854 | 6 | 288 | 0.0 | 6.4 | 0.00 | 0.99 | 0.00 | 88 | 1012.8 |
| 20260505071323 | 6 | 288 | 0.0 | 6.4 | 0.00 | 0.99 | 0.99 | 88 | 1012.7 |
| 20260505070828 | 6 | 288 | 1.6 | 6.4 | 0.00 | 0.99 | 0.99 | 88 | 1012.7 |
| 20260505070337 | 6 | 288 | 1.6 | 6.4 | 0.00 | 0.99 | 0.99 | 88 | 1012.4 |
| 20260505065841 | 6 | 288 | 1.6 | 6.4 | 0.00 | 0.99 | 0.99 | 88 | 1012.4 |
| 20260505065328 | 6 | 288 | 3.2 | 12.9 | 0.00 | 0.99 | 0.99 | 87 | 1012.2 |
| 20260505064818 | 6 | 288 | 1.6 | 12.9 | 0.00 | 0.99 | 0.99 | 88 | 1012.1 |
| 20260505064329 | 6 | 290 | 3.2 | 8.0 | 0.00 | 0.99 | 0.99 | 87 | 1012.2 |
| 20260505063821 | 6 | 290 | 1.6 | 11.3 | 0.00 | 0.99 | 0.99 | 88 | 1012.3 |
| 20260505063332 | 6 | 290 | 3.2 | 11.3 | 0.00 | 0.99 | 0.99 | 88 | 1012.2 |
| 20260505062820 | 6 | 290 | 3.2 | 12.9 | 0.00 | 0.99 | 0.99 | 88 | 1011.8 |
| 20260505062335 | 6 | 290 | 3.2 | 16.1 | 0.00 | 0.99 | 0.99 | 88 | 1011.5 |
| 20260505061826 | 6 | 290 | 8.0 | 16.1 | 0.00 | 0.99 | 0.99 | 88 | 1011.5 |
| 20260505061336 | 6 | 290 | 4.8 | 19.3 | 0.00 | 0.99 | 0.99 | 88 | 1011.5 |
| 20260505060826 | 6 | 288 | 6.4 | 19.3 | 0.00 | 0.99 | 0.99 | 88 | 1011.5 |
| 20260505060335 | 6 | 277 | 9.7 | 16.1 | 0.00 | 0.99 | 0.99 | 88 | 1011.7 |
| 20260505055824 | 6 | 276 | 4.8 | 16.1 | 0.00 | 0.99 | 0.99 | 88 | 1011.6 |
| 20260505055334 | 6 | 276 | 8.0 | 16.1 | 0.03 | 0.99 | 0.99 | 88 | 1011.6 |
| 20260505054844 | 6 | 275 | 6.4 | 14.5 | 0.03 | 0.99 | 0.99 | 88 | 1011.6 |
| 20260505054330 | 6 | 273 | 1.6 | 16.1 | 0.03 | 0.99 | 0.99 | 88 | 1011.7 |
| 20260505053820 | 6 | 272 | 6.4 | 19.3 | 0.03 | 0.99 | 0.99 | 88 | 1011.9 |
| 20260505053332 | 6 | 269 | 9.7 | 20.9 | 0.03 | 0.99 | 0.99 | 88 | 1011.9 |
| 20260505052843 | 6 | 306 | 9.7 | 19.3 | 0.03 | 0.99 | 0.99 | 88 | 1012.1 |
| 20260505052351 | 6 | 301 | 9.7 | 19.3 | 0.03 | 0.99 | 0.99 | 89 | 1012.0 |
| 20260505051820 | 6 | 320 | 9.7 | 20.9 | 0.03 | 0.99 | 0.99 | 89 | 1012.1 |
| 20260505051348 | 6 | 310 | 6.4 | 17.7 | 0.03 | 0.99 | 0.99 | 90 | 1011.9 |
| 20260505050818 | 6 | 322 | 6.4 | 17.7 | 0.03 | 0.99 | 0.99 | 90 | 1012.2 |
| 20260505050329 | 6 | 310 | 6.4 | 16.1 | 0.03 | 0.99 | 0.99 | 89 | 1012.3 |
| 20260505041320 | 7 | 196 | 6.4 | 14.5 | 0.03 | 0.97 | 0.97 | 89 | 1012.0 |
| 20260505040826 | 7 | 192 | 8.0 | 12.9 | 0.03 | 0.97 | 0.97 | 89 | 1011.7 |
| 20260505040316 | 7 | 189 | 4.8 | 11.3 | 0.03 | 0.97 | 0.97 | 90 | 1011.5 |
| 20260505035826 | 7 | 188 | 6.4 | 12.9 | 0.05 | 0.97 | 0.97 | 90 | 1011.7 |
| 20260505035317 | 7 | 187 | 6.4 | 11.3 | 0.05 | 0.97 | 0.97 | 90 | 1011.9 |
| 20260505034828 | 7 | 186 | 4.8 | 11.3 | 0.05 | 0.97 | 0.97 | 89 | 1012.0 |
| 20260505034319 | 7 | 186 | 6.4 | 16.1 | 0.03 | 0.94 | 0.94 | 90 | 1012.1 |
| 20260505033832 | 7 | 186 | 6.4 | 16.1 | 0.03 | 0.94 | 0.94 | 90 | 1012.1 |
| 20260505033321 | 7 | 184 | 6.4 | 9.7 | 0.05 | 0.94 | 0.94 | 90 | 1011.9 |
| 20260505032831 | 7 | 184 | 3.2 | 6.4 | 0.05 | 0.94 | 0.94 | 89 | 1011.6 |
| 20260505032342 | 7 | 184 | 3.2 | 8.0 | 0.05 | 0.94 | 0.94 | 89 | 1011.4 |
| 20260505031831 | 7 | 184 | 3.2 | 8.0 | 0.05 | 0.94 | 0.94 | 89 | 1011.5 |
| 20260505031323 | 7 | 184 | 3.2 | 9.7 | 0.05 | 0.94 | 0.94 | 90 | 1011.4 |
| 20260505030815 | 7 | 184 | 3.2 | 9.7 | 0.05 | 0.94 | 0.94 | 90 | 1011.3 |
| 20260505030354 | 7 | 184 | 3.2 | 14.5 | 0.05 | 0.94 | 0.94 | 90 | 1011.1 |
| 20260505025824 | 7 | 184 | 4.8 | 14.5 | 0.03 | 0.91 | 0.91 | 89 | 1011.3 |
| 20260505025314 | 7 | 184 | 1.6 | 4.8 | 0.03 | 0.91 | 0.91 | 89 | 1011.1 |
| 20260505024852 | 7 | 184 | 0.0 | 0.0 | 0.03 | 0.91 | 0.91 | 88 | 1011.0 |
| 20260505024343 | 7 | 184 | 0.0 | 4.8 | 0.03 | 0.91 | 0.91 | 88 | 1011.0 |
| 20260505023828 | 7 | 184 | 0.0 | 14.5 | 0.05 | 0.91 | 0.91 | 88 | 1011.4 |
| 20260505023340 | 7 | 184 | 6.4 | 14.5 | 0.08 | 0.89 | 0.89 | 88 | 1011.9 |
| 20260505022849 | 7 | 184 | 6.4 | 11.3 | 0.13 | 0.89 | 0.89 | 88 | 1011.9 |
| 20260505022340 | 7 | 184 | 4.8 | 16.1 | 0.18 | 0.89 | 0.89 | 89 | 1011.7 |
| 20260505021828 | 7 | 180 | 6.4 | 11.3 | 0.23 | 0.89 | 0.89 | 89 | 1011.3 |
| 20260505021318 | 7 | 180 | 4.8 | 9.7 | 0.28 | 0.89 | 0.89 | 89 | 1011.2 |
| 20260505020829 | 7 | 179 | 4.8 | 11.3 | 0.33 | 0.89 | 0.89 | 89 | 1011.2 |
| 20260505020320 | 7 | 176 | 4.8 | 12.9 | 0.33 | 0.89 | 0.89 | 89 | 1011.2 |
| 20260505015831 | 7 | 173 | 4.8 | 8.0 | 0.36 | 0.89 | 0.89 | 89 | 1011.4 |
| 20260505015322 | 7 | 173 | 3.2 | 11.3 | 0.36 | 0.89 | 0.89 | 89 | 1011.5 |
| 20260505014832 | 7 | 173 | 3.2 | 16.1 | 0.38 | 0.89 | 0.89 | 88 | 1011.4 |
| 20260505014322 | 7 | 159 | 3.2 | 14.5 | 0.46 | 0.89 | 0.89 | 89 | 1011.4 |
| 20260505013830 | 7 | 159 | 3.2 | 14.5 | 0.48 | 0.86 | 0.86 | 89 | 1011.8 |
| 20260505013320 | 8 | 157 | 4.8 | 12.9 | 0.51 | 0.81 | 0.81 | 89 | 1011.9 |
| 20260505012828 | 8 | 156 | 3.2 | 11.3 | 0.48 | 0.76 | 0.76 | 88 | 1012.4 |
| 20260505012319 | 8 | 155 | 4.8 | 11.3 | 0.43 | 0.71 | 0.71 | 87 | 1012.8 |
| 20260505011856 | 8 | 155 | 4.8 | 14.5 | 0.38 | 0.66 | 0.66 | 87 | 1012.9 |
| 20260505011325 | 8 | 155 | 6.4 | 22.5 | 0.30 | 0.58 | 0.58 | 86 | 1012.8 |
| 20260505010852 | 8 | 161 | 8.0 | 32.2 | 0.28 | 0.56 | 0.56 | 85 | 1012.4 |
| 20260505010343 | 8 | 157 | 14.5 | 32.2 | 0.25 | 0.53 | 0.53 | 84 | 1012.1 |
| 20260505005852 | 8 | 183 | 17.7 | 30.6 | 0.25 | 0.53 | 0.53 | 81 | 1011.5 |
| 20260505005320 | 8 | 183 | 19.3 | 30.6 | 0.23 | 0.51 | 0.51 | 81 | 1011.5 |